| time (UTC) | temp F | wind direction | speed knots | gust knots | rain 1hr in | rain 24hr in | rain mn in | humidity % | barometer mb |
| 20260831231057 | 87 | 152 | 0.0 | 0.0 | 0.00 | 0.00 | 0.00 | 31 | 1017.1 |
| 20260831230550 | 87 | 152 | 0.0 | 0.0 | 0.00 | 0.00 | 0.00 | 31 | 1017.2 |
| 20260831230043 | 87 | 161 | 0.0 | 0.9 | 0.00 | 0.00 | 0.00 | 32 | 1017.2 |
| 20260831225538 | 86 | 159 | 0.0 | 0.9 | 0.00 | 0.00 | 0.00 | 32 | 1017.3 |
| 20260831225031 | 86 | 123 | 0.0 | 0.9 | 0.00 | 0.00 | 0.00 | 31 | 1017.4 |
| 20260831224525 | 86 | 144 | 0.0 | 0.9 | 0.00 | 0.00 | 0.00 | 30 | 1017.3 |
| 20260831224020 | 85 | 134 | 0.0 | 0.0 | 0.00 | 0.00 | 0.00 | 32 | 1017.4 |
| 20260831223513 | 86 | 135 | 0.0 | 0.0 | 0.00 | 0.00 | 0.00 | 33 | 1017.4 |
| 20260831223007 | 86 | 134 | 0.0 | 0.0 | 0.00 | 0.00 | 0.00 | 35 | 1017.5 |
| 20260831222505 | 86 | 132 | 0.0 | 0.0 | 0.00 | 0.01 | 0.00 | 32 | 1017.5 |
| 20260831222005 | 85 | 146 | 0.0 | 0.9 | 0.00 | 0.01 | 0.00 | 34 | 1017.5 |
| 20260831221501 | 85 | 146 | 0.0 | 0.9 | 0.00 | 0.01 | 0.00 | 30 | 1017.5 |
| 20260831221001 | 85 | 154 | 0.0 | 0.9 | 0.00 | 0.01 | 0.00 | 32 | 1017.6 |
| 20260831215959 | 85 | 76 | 0.0 | 0.9 | 0.00 | 0.01 | 0.00 | 33 | 1017.6 |
| 20260831214956 | 86 | 103 | 0.0 | 0.0 | 0.00 | 0.01 | 0.00 | 31 | 1017.8 |
| 20260831214455 | 86 | 101 | 0.0 | 0.0 | 0.00 | 0.01 | 0.00 | 32 | 1017.9 |
| 20260831213954 | 85 | 342 | 0.0 | 0.0 | 0.00 | 0.01 | 0.00 | 33 | 1017.8 |
| 20260831213454 | 84 | 342 | 0.0 | 0.0 | 0.00 | 0.01 | 0.00 | 34 | 1017.8 |
| 20260831212455 | 84 | 307 | 0.0 | 0.0 | 0.00 | 0.01 | 0.00 | 36 | 1017.9 |
| 20260831211950 | 84 | 257 | 0.0 | 1.7 | 0.00 | 0.01 | 0.00 | 34 | 1018.0 |
| 20260831211451 | 85 | 211 | 0.0 | 1.7 | 0.00 | 0.01 | 0.00 | 38 | 1018.1 |
| 20260831210951 | 84 | 170 | 0.0 | 0.9 | 0.00 | 0.01 | 0.00 | 40 | 1018.2 |
| 20260831210450 | 84 | 170 | 0.0 | 0.9 | 0.00 | 0.01 | 0.00 | 37 | 1018.3 |
| 20260831205951 | 83 | 31 | 0.0 | 0.0 | 0.00 | 0.01 | 0.00 | 39 | 1018.3 |
| 20260831204450 | 82 | 138 | 0.0 | 0.0 | 0.00 | 0.01 | 0.00 | 38 | 1018.7 |
| 20260831203951 | 82 | 138 | 0.0 | 0.0 | 0.00 | 0.02 | 0.00 | 38 | 1018.7 |
| 20260831203450 | 82 | 138 | 0.0 | 0.0 | 0.00 | 0.02 | 0.00 | 39 | 1018.8 |
| 20260831202950 | 82 | 139 | 0.0 | 0.0 | 0.00 | 0.02 | 0.00 | 38 | 1018.9 |
| 20260831202451 | 82 | 238 | 0.0 | 0.0 | 0.00 | 0.02 | 0.00 | 37 | 1019.0 |
| 20260831201950 | 82 | 238 | 0.0 | 0.0 | 0.00 | 0.02 | 0.00 | 38 | 1019.0 |
| 20260831200951 | 82 | 259 | 0.0 | 0.0 | 0.00 | 0.02 | 0.00 | 38 | 1019.2 |
| 20260831200450 | 82 | 259 | 0.0 | 0.0 | 0.00 | 0.02 | 0.00 | 38 | 1019.3 |
| 20260831195447 | 82 | 240 | 0.0 | 0.0 | 0.00 | 0.02 | 0.00 | 38 | 1019.3 |
| 20260831194941 | 82 | 244 | 0.0 | 0.0 | 0.00 | 0.02 | 0.00 | 39 | 1019.3 |
| 20260831194434 | 82 | 244 | 0.0 | 0.0 | 0.00 | 0.02 | 0.00 | 38 | 1019.4 |
| 20260831193927 | 81 | 244 | 0.0 | 0.0 | 0.00 | 0.02 | 0.00 | 36 | 1019.4 |
| 20260831193422 | 81 | 244 | 0.0 | 0.0 | 0.00 | 0.02 | 0.00 | 37 | 1019.5 |
| 20260831192916 | 81 | 244 | 0.0 | 0.0 | 0.00 | 0.02 | 0.00 | 40 | 1019.6 |
| 20260831192410 | 81 | 244 | 0.0 | 0.0 | 0.00 | 0.02 | 0.00 | 40 | 1019.6 |
| 20260831191904 | 81 | 244 | 0.0 | 0.0 | 0.00 | 0.02 | 0.00 | 39 | 1019.7 |
| 20260831190852 | 81 | 245 | 0.0 | 0.0 | 0.00 | 0.02 | 0.00 | 41 | 1020.0 |
| 20260831190346 | 81 | 245 | 0.0 | 0.0 | 0.00 | 0.02 | 0.00 | 40 | 1020.0 |
| 20260831185840 | 80 | 245 | 0.0 | 0.0 | 0.00 | 0.02 | 0.00 | 40 | 1020.1 |
| 20260831184825 | 80 | 245 | 0.0 | 0.0 | 0.00 | 0.02 | 0.00 | 39 | 1020.1 |
| 20260831184320 | 80 | 245 | 0.0 | 0.0 | 0.00 | 0.02 | 0.00 | 41 | 1020.2 |
| 20260831183813 | 80 | 245 | 0.0 | 0.0 | 0.00 | 0.02 | 0.00 | 41 | 1020.2 |
| 20260831183307 | 80 | 245 | 0.0 | 0.0 | 0.00 | 0.02 | 0.00 | 40 | 1020.2 |
| 20260831182802 | 80 | 244 | 0.0 | 0.0 | 0.00 | 0.02 | 0.00 | 40 | 1020.2 |
| 20260831181749 | 80 | 244 | 0.0 | 0.0 | 0.00 | 0.02 | 0.00 | 40 | 1020.3 |
| 20260831181244 | 79 | 244 | 0.0 | 0.0 | 0.00 | 0.02 | 0.00 | 40 | 1020.3 |
| 20260831180739 | 79 | 244 | 0.0 | 0.0 | 0.00 | 0.02 | 0.00 | 40 | 1020.4 |
| 20260831180232 | 79 | 244 | 0.0 | 0.0 | 0.00 | 0.02 | 0.00 | 40 | 1020.4 |
| 20260831175726 | 79 | 243 | 0.0 | 0.0 | 0.00 | 0.02 | 0.00 | 43 | 1020.4 |
| 20260831175219 | 79 | 243 | 0.0 | 0.0 | 0.00 | 0.02 | 0.00 | 41 | 1020.4 |
| 20260831174713 | 79 | 243 | 0.0 | 0.0 | 0.00 | 0.02 | 0.00 | 43 | 1020.4 |
| 20260831174208 | 79 | 243 | 0.0 | 0.0 | 0.00 | 0.02 | 0.00 | 42 | 1020.6 |
| 20260831173701 | 79 | 243 | 0.0 | 0.0 | 0.00 | 0.02 | 0.00 | 43 | 1020.6 |
| 20260831173155 | 79 | 243 | 0.0 | 0.0 | 0.00 | 0.02 | 0.00 | 43 | 1020.6 |
| 20260831172652 | 78 | 243 | 0.0 | 0.0 | 0.00 | 0.02 | 0.00 | 47 | 1020.7 |
| 20260831172143 | 78 | 243 | 0.0 | 0.0 | 0.00 | 0.02 | 0.00 | 46 | 1020.7 |
| 20260831171132 | 78 | 243 | 0.0 | 0.0 | 0.00 | 0.02 | 0.00 | 45 | 1020.7 |
| 20260831170119 | 78 | 243 | 0.0 | 0.0 | 0.00 | 0.02 | 0.00 | 45 | 1020.8 |
| 20260831165614 | 78 | 243 | 0.0 | 0.0 | 0.00 | 0.02 | 0.00 | 45 | 1020.7 |
| 20260831165109 | 77 | 243 | 0.0 | 0.0 | 0.00 | 0.02 | 0.00 | 47 | 1020.7 |
| 20260831164603 | 77 | 244 | 0.0 | 0.0 | 0.00 | 0.02 | 0.00 | 47 | 1020.7 |
| 20260831164056 | 77 | 244 | 0.0 | 0.0 | 0.00 | 0.02 | 0.00 | 48 | 1020.8 |
| 20260831163549 | 77 | 244 | 0.0 | 0.0 | 0.00 | 0.02 | 0.00 | 47 | 1020.7 |
| 20260831163044 | 76 | 243 | 0.0 | 0.0 | 0.00 | 0.02 | 0.00 | 49 | 1020.7 |
| 20260831162538 | 76 | 243 | 0.0 | 0.0 | 0.00 | 0.02 | 0.00 | 48 | 1020.6 |
| 20260831162033 | 76 | 243 | 0.0 | 0.0 | 0.00 | 0.02 | 0.00 | 50 | 1020.6 |
| 20260831161527 | 75 | 244 | 0.0 | 0.0 | 0.00 | 0.02 | 0.00 | 49 | 1020.6 |
| 20260831161021 | 75 | 244 | 0.0 | 0.0 | 0.00 | 0.02 | 0.00 | 48 | 1020.6 |
| 20260831160515 | 75 | 244 | 0.0 | 0.0 | 0.00 | 0.02 | 0.00 | 49 | 1020.6 |
| 20260831154957 | 74 | 248 | 0.0 | 0.0 | 0.00 | 0.02 | 0.00 | 52 | 1020.3 |
| 20260831154450 | 74 | 248 | 0.0 | 0.0 | 0.00 | 0.02 | 0.00 | 53 | 1020.2 |
| 20260831153943 | 73 | 248 | 0.0 | 0.0 | 0.00 | 0.02 | 0.00 | 52 | 1020.2 |
| 20260831153438 | 73 | 248 | 0.0 | 0.0 | 0.00 | 0.02 | 0.00 | 52 | 1020.2 |
| 20260831152932 | 73 | 248 | 0.0 | 0.0 | 0.00 | 0.02 | 0.00 | 51 | 1020.2 |
| 20260831152427 | 72 | 249 | 0.0 | 0.0 | 0.00 | 0.02 | 0.00 | 53 | 1020.1 |
| 20260831151920 | 72 | 248 | 0.0 | 0.0 | 0.00 | 0.02 | 0.00 | 55 | 1020.2 |
| 20260831151413 | 71 | 249 | 0.0 | 0.9 | 0.00 | 0.02 | 0.00 | 55 | 1020.1 |
| 20260831150908 | 71 | 249 | 0.0 | 0.9 | 0.00 | 0.02 | 0.00 | 54 | 1020.3 |
| 20260831150402 | 71 | 252 | 0.0 | 0.9 | 0.00 | 0.02 | 0.00 | 57 | 1020.2 |
| 20260831145856 | 71 | 252 | 0.0 | 0.9 | 0.00 | 0.02 | 0.00 | 57 | 1020.2 |
| 20260831145350 | 70 | 245 | 0.0 | 1.7 | 0.00 | 0.02 | 0.00 | 57 | 1020.2 |
| 20260831144844 | 70 | 255 | 0.0 | 1.7 | 0.00 | 0.02 | 0.00 | 58 | 1020.3 |
| 20260831143833 | 69 | 248 | 0.0 | 0.0 | 0.00 | 0.02 | 0.00 | 62 | 1020.2 |
| 20260831143327 | 68 | 247 | 0.0 | 0.0 | 0.00 | 0.02 | 0.00 | 63 | 1020.2 |
| 20260831142820 | 68 | 249 | 0.0 | 0.0 | 0.00 | 0.02 | 0.00 | 64 | 1020.1 |
| 20260831142314 | 67 | 248 | 0.0 | 0.9 | 0.00 | 0.02 | 0.00 | 65 | 1020.0 |
| 20260831141808 | 67 | 248 | 0.0 | 0.9 | 0.00 | 0.02 | 0.00 | 67 | 1020.0 |
| 20260831141301 | 66 | 248 | 0.0 | 0.9 | 0.00 | 0.02 | 0.00 | 69 | 1020.0 |
| 20260831140755 | 65 | 241 | 0.0 | 0.9 | 0.00 | 0.02 | 0.00 | 72 | 1020.0 |
| 20260831140250 | 65 | 229 | 0.0 | 0.0 | 0.00 | 0.02 | 0.00 | 73 | 1020.0 |
| 20260831135744 | 64 | 229 | 0.0 | 0.0 | 0.00 | 0.02 | 0.00 | 74 | 1020.0 |
| 20260831135245 | 63 | 229 | 0.0 | 0.0 | 0.00 | 0.02 | 0.00 | 74 | 1019.9 |
| 20260831134239 | 62 | 229 | 0.0 | 0.0 | 0.00 | 0.02 | 0.00 | 74 | 1019.7 |
| 20260831133737 | 62 | 229 | 0.0 | 0.0 | 0.00 | 0.02 | 0.00 | 75 | 1019.6 |
| 20260831132733 | 61 | 229 | 0.0 | 0.0 | 0.00 | 0.02 | 0.00 | 75 | 1019.5 |
| 20260831132232 | 61 | 229 | 0.0 | 0.0 | 0.00 | 0.02 | 0.00 | 75 | 1019.5 |
| 20260831131729 | 61 | 229 | 0.0 | 0.0 | 0.00 | 0.02 | 0.00 | 74 | 1019.4 |
| 20260831131228 | 61 | 229 | 0.0 | 0.0 | 0.00 | 0.02 | 0.00 | 74 | 1019.3 |
| 20260831130223 | 61 | 229 | 0.0 | 0.0 | 0.00 | 0.02 | 0.00 | 73 | 1019.3 |
| 20260831125219 | 61 | 229 | 0.0 | 0.0 | 0.00 | 0.02 | 0.00 | 72 | 1019.3 |
| 20260831124721 | 61 | 229 | 0.0 | 0.0 | 0.00 | 0.02 | 0.00 | 72 | 1019.2 |
| 20260831124217 | 61 | 229 | 0.0 | 0.0 | 0.00 | 0.02 | 0.00 | 72 | 1019.0 |
| 20260831123715 | 61 | 229 | 0.0 | 0.0 | 0.00 | 0.02 | 0.00 | 71 | 1018.9 |
| 20260831123214 | 61 | 229 | 0.0 | 0.0 | 0.00 | 0.02 | 0.00 | 71 | 1018.9 |
| 20260831122713 | 61 | 229 | 0.0 | 0.0 | 0.00 | 0.02 | 0.00 | 71 | 1018.8 |
| 20260831122215 | 61 | 229 | 0.0 | 0.0 | 0.00 | 0.02 | 0.00 | 70 | 1018.8 |
| 20260831121711 | 61 | 229 | 0.0 | 0.0 | 0.00 | 0.02 | 0.00 | 70 | 1018.7 |
| 20260831120209 | 62 | 229 | 0.0 | 0.0 | 0.00 | 0.02 | 0.00 | 70 | 1018.6 |
| 20260831114709 | 62 | 229 | 0.0 | 0.0 | 0.00 | 0.02 | 0.00 | 70 | 1018.6 |
| 20260831114210 | 62 | 229 | 0.0 | 0.0 | 0.00 | 0.02 | 0.00 | 70 | 1018.6 |
| 20260831113711 | 62 | 229 | 0.0 | 0.0 | 0.00 | 0.02 | 0.00 | 70 | 1018.6 |
| 20260831113209 | 62 | 229 | 0.0 | 0.0 | 0.00 | 0.02 | 0.00 | 70 | 1018.5 |
| 20260831112706 | 62 | 229 | 0.0 | 0.0 | 0.00 | 0.02 | 0.00 | 70 | 1018.3 |
| 20260831112206 | 62 | 229 | 0.0 | 0.0 | 0.00 | 0.02 | 0.00 | 70 | 1018.3 |
| 20260831111706 | 62 | 229 | 0.0 | 0.0 | 0.00 | 0.02 | 0.00 | 70 | 1018.2 |
| 20260831111205 | 62 | 229 | 0.0 | 0.0 | 0.00 | 0.02 | 0.00 | 70 | 1018.1 |
| 20260831110706 | 62 | 229 | 0.0 | 0.0 | 0.00 | 0.02 | 0.00 | 70 | 1018.1 |
| 20260831110208 | 62 | 229 | 0.0 | 0.0 | 0.00 | 0.02 | 0.00 | 70 | 1018.2 |
| 20260831105708 | 62 | 229 | 0.0 | 0.0 | 0.00 | 0.02 | 0.00 | 70 | 1018.2 |
| 20260831105208 | 62 | 229 | 0.0 | 0.0 | 0.00 | 0.02 | 0.00 | 70 | 1018.1 |
| 20260831104708 | 62 | 229 | 0.0 | 0.0 | 0.00 | 0.02 | 0.00 | 70 | 1018.0 |
| 20260831104204 | 62 | 229 | 0.0 | 0.0 | 0.00 | 0.02 | 0.00 | 70 | 1018.0 |
| 20260831103704 | 62 | 229 | 0.0 | 0.0 | 0.00 | 0.02 | 0.00 | 70 | 1018.1 |
| 20260831103204 | 62 | 229 | 0.0 | 0.0 | 0.00 | 0.02 | 0.00 | 70 | 1018.1 |
| 20260831102702 | 62 | 229 | 0.0 | 0.0 | 0.00 | 0.02 | 0.00 | 70 | 1018.1 |
| 20260831102201 | 62 | 229 | 0.0 | 0.0 | 0.00 | 0.02 | 0.00 | 70 | 1018.1 |
| 20260831101701 | 62 | 229 | 0.0 | 0.0 | 0.00 | 0.02 | 0.00 | 70 | 1018.1 |
| 20260831101203 | 62 | 229 | 0.0 | 0.0 | 0.00 | 0.02 | 0.00 | 70 | 1018.2 |
| 20260831100701 | 62 | 229 | 0.0 | 0.0 | 0.00 | 0.02 | 0.00 | 70 | 1018.1 |
| 20260831100202 | 62 | 229 | 0.0 | 0.0 | 0.00 | 0.02 | 0.00 | 70 | 1018.1 |
| 20260831095702 | 63 | 229 | 0.0 | 0.0 | 0.00 | 0.02 | 0.00 | 70 | 1018.0 |
| 20260831095201 | 63 | 229 | 0.0 | 0.0 | 0.00 | 0.02 | 0.00 | 70 | 1017.9 |
| 20260831094701 | 63 | 229 | 0.0 | 0.0 | 0.00 | 0.02 | 0.00 | 70 | 1017.9 |
| 20260831094158 | 63 | 229 | 0.0 | 0.0 | 0.00 | 0.02 | 0.00 | 70 | 1017.8 |
| 20260831093659 | 63 | 229 | 0.0 | 0.0 | 0.00 | 0.02 | 0.00 | 70 | 1017.8 |
| 20260831093153 | 63 | 229 | 0.0 | 0.0 | 0.00 | 0.02 | 0.00 | 70 | 1017.9 |
| 20260831092645 | 63 | 229 | 0.0 | 0.0 | 0.00 | 0.02 | 0.00 | 70 | 1017.8 |
| 20260831092139 | 63 | 229 | 0.0 | 0.0 | 0.00 | 0.02 | 0.00 | 70 | 1017.8 |
| 20260831091634 | 63 | 229 | 0.0 | 0.0 | 0.00 | 0.02 | 0.00 | 70 | 1017.8 |
| 20260831091129 | 63 | 229 | 0.0 | 0.0 | 0.00 | 0.02 | 0.00 | 70 | 1017.6 |
| 20260831090621 | 63 | 229 | 0.0 | 0.0 | 0.00 | 0.02 | 0.00 | 69 | 1017.6 |
| 20260831085610 | 64 | 229 | 0.0 | 0.0 | 0.00 | 0.02 | 0.00 | 69 | 1017.8 |
| 20260831085103 | 64 | 229 | 0.0 | 0.0 | 0.00 | 0.02 | 0.00 | 69 | 1017.6 |
| 20260831084557 | 64 | 229 | 0.0 | 0.0 | 0.00 | 0.02 | 0.00 | 69 | 1017.8 |
| 20260831084054 | 64 | 229 | 0.0 | 0.0 | 0.00 | 0.02 | 0.00 | 69 | 1017.8 |
| 20260831083547 | 64 | 229 | 0.0 | 0.0 | 0.00 | 0.02 | 0.00 | 69 | 1017.8 |
| 20260831083039 | 64 | 229 | 0.0 | 0.0 | 0.00 | 0.02 | 0.00 | 69 | 1017.9 |
| 20260831082027 | 65 | 229 | 0.0 | 0.0 | 0.00 | 0.02 | 0.00 | 69 | 1018.0 |
| 20260831081523 | 65 | 229 | 0.0 | 0.0 | 0.00 | 0.02 | 0.00 | 69 | 1018.0 |
| 20260831080509 | 65 | 229 | 0.0 | 0.0 | 0.00 | 0.02 | 0.00 | 69 | 1017.9 |
| 20260831080004 | 65 | 229 | 0.0 | 0.0 | 0.00 | 0.02 | 0.00 | 69 | 1017.9 |
| 20260831075459 | 65 | 229 | 0.0 | 0.0 | 0.00 | 0.02 | 0.00 | 69 | 1018.1 |
| 20260831074951 | 65 | 229 | 0.0 | 0.0 | 0.00 | 0.02 | 0.00 | 69 | 1018.2 |
| 20260831074445 | 65 | 229 | 0.0 | 0.0 | 0.00 | 0.02 | 0.00 | 69 | 1018.1 |
| 20260831073940 | 65 | 229 | 0.0 | 0.0 | 0.00 | 0.02 | 0.00 | 69 | 1018.2 |
| 20260831072927 | 66 | 229 | 0.0 | 0.0 | 0.00 | 0.02 | 0.00 | 68 | 1018.2 |
| 20260831072423 | 66 | 229 | 0.0 | 0.0 | 0.00 | 0.02 | 0.00 | 68 | 1018.3 |
| 20260831071916 | 66 | 229 | 0.0 | 0.0 | 0.00 | 0.02 | 0.00 | 68 | 1018.3 |
| 20260831070904 | 66 | 229 | 0.0 | 0.0 | 0.00 | 0.02 | 0.00 | 67 | 1018.6 |
| 20260831070403 | 67 | 229 | 0.0 | 0.0 | 0.00 | 0.02 | 0.00 | 67 | 1018.6 |
| 20260831065905 | 67 | 229 | 0.0 | 0.0 | 0.00 | 0.02 | 0.00 | 67 | 1018.5 |
| 20260831065404 | 67 | 229 | 0.0 | 0.0 | 0.00 | 0.02 | 0.00 | 67 | 1018.3 |
| 20260831064903 | 67 | 229 | 0.0 | 0.0 | 0.00 | 0.02 | 0.00 | 67 | 1018.6 |
| 20260831064402 | 67 | 229 | 0.0 | 0.0 | 0.00 | 0.02 | 0.00 | 67 | 1018.6 |
| 20260831063900 | 67 | 229 | 0.0 | 0.0 | 0.00 | 0.02 | 0.00 | 67 | 1018.6 |
| 20260831063357 | 67 | 229 | 0.0 | 0.0 | 0.00 | 0.02 | 0.00 | 67 | 1018.7 |
| 20260831062855 | 67 | 229 | 0.0 | 0.0 | 0.00 | 0.02 | 0.00 | 67 | 1018.9 |
| 20260831062355 | 67 | 229 | 0.0 | 0.0 | 0.00 | 0.02 | 0.00 | 67 | 1018.8 |
| 20260831061855 | 67 | 229 | 0.0 | 0.0 | 0.00 | 0.02 | 0.00 | 68 | 1018.8 |
| 20260831060856 | 67 | 229 | 0.0 | 0.0 | 0.00 | 0.02 | 0.00 | 68 | 1018.9 |
| 20260831060354 | 67 | 229 | 0.0 | 0.0 | 0.00 | 0.02 | 0.00 | 68 | 1019.0 |
| 20260831055851 | 67 | 229 | 0.0 | 0.0 | 0.00 | 0.02 | 0.02 | 69 | 1019.0 |
| 20260831055351 | 67 | 229 | 0.0 | 0.0 | 0.00 | 0.02 | 0.02 | 69 | 1019.3 |
| 20260831054345 | 67 | 229 | 0.0 | 0.0 | 0.00 | 0.02 | 0.02 | 70 | 1019.2 |
| 20260831053839 | 67 | 229 | 0.0 | 0.0 | 0.00 | 0.02 | 0.02 | 70 | 1019.4 |
| 20260831053333 | 67 | 254 | 0.0 | 0.0 | 0.00 | 0.02 | 0.02 | 72 | 1019.5 |
| 20260831052827 | 67 | 253 | 0.0 | 0.0 | 0.00 | 0.02 | 0.02 | 72 | 1019.5 |
| 20260831051814 | 67 | 258 | 0.0 | 0.0 | 0.00 | 0.02 | 0.02 | 73 | 1019.7 |
| 20260831051311 | 67 | 223 | 0.0 | 0.0 | 0.00 | 0.02 | 0.02 | 72 | 1019.7 |
| 20260831050804 | 67 | 223 | 0.0 | 0.9 | 0.00 | 0.02 | 0.02 | 72 | 1020.0 |
| 20260831050259 | 66 | 223 | 0.0 | 0.9 | 0.00 | 0.02 | 0.02 | 72 | 1020.2 |
| 20260831045751 | 66 | 223 | 0.0 | 0.0 | 0.00 | 0.02 | 0.02 | 71 | 1020.0 |
| 20260831045245 | 66 | 223 | 0.0 | 0.0 | 0.00 | 0.02 | 0.02 | 71 | 1019.5 |
| 20260831044739 | 66 | 223 | 0.0 | 0.0 | 0.00 | 0.02 | 0.02 | 71 | 1019.3 |
| 20260831044233 | 66 | 223 | 0.0 | 0.0 | 0.00 | 0.02 | 0.02 | 70 | 1019.0 |
| 20260831043727 | 66 | 223 | 0.0 | 0.0 | 0.00 | 0.02 | 0.02 | 70 | 1018.9 |
| 20260831043222 | 67 | 223 | 0.0 | 0.0 | 0.00 | 0.02 | 0.02 | 70 | 1018.9 |
| 20260831042716 | 67 | 223 | 0.0 | 0.0 | 0.00 | 0.02 | 0.02 | 70 | 1018.8 |
| 20260831042209 | 67 | 223 | 0.0 | 0.0 | 0.00 | 0.02 | 0.02 | 69 | 1018.8 |
| 20260831041703 | 67 | 223 | 0.0 | 0.0 | 0.00 | 0.02 | 0.02 | 69 | 1018.9 |
| 20260831041157 | 67 | 223 | 0.0 | 0.0 | 0.00 | 0.02 | 0.02 | 69 | 1018.9 |
| 20260831040145 | 67 | 223 | 0.0 | 0.0 | 0.00 | 0.02 | 0.02 | 69 | 1018.8 |
| 20260831035640 | 67 | 223 | 0.0 | 0.0 | 0.00 | 0.02 | 0.02 | 68 | 1018.8 |
| 20260831035133 | 67 | 223 | 0.0 | 0.0 | 0.00 | 0.02 | 0.02 | 68 | 1018.8 |
| 20260831034627 | 67 | 223 | 0.0 | 0.0 | 0.00 | 0.02 | 0.02 | 68 | 1018.8 |
| 20260831034119 | 67 | 223 | 0.0 | 0.0 | 0.00 | 0.02 | 0.02 | 67 | 1018.8 |
| 20260831033613 | 67 | 223 | 0.0 | 0.0 | 0.00 | 0.02 | 0.02 | 67 | 1018.8 |
| 20260831033108 | 67 | 223 | 0.0 | 0.0 | 0.00 | 0.02 | 0.02 | 66 | 1018.8 |
| 20260831032602 | 67 | 223 | 0.0 | 0.0 | 0.00 | 0.02 | 0.02 | 66 | 1018.8 |
| 20260831032055 | 67 | 223 | 0.0 | 0.0 | 0.00 | 0.02 | 0.02 | 65 | 1018.7 |
| 20260831031549 | 67 | 223 | 0.0 | 0.0 | 0.00 | 0.02 | 0.02 | 65 | 1018.7 |
| 20260831031042 | 67 | 223 | 0.0 | 0.0 | 0.00 | 0.02 | 0.02 | 65 | 1018.6 |
| 20260831030537 | 68 | 223 | 0.0 | 0.0 | 0.00 | 0.02 | 0.02 | 64 | 1018.6 |
| 20260831030031 | 68 | 223 | 0.0 | 0.0 | 0.00 | 0.02 | 0.02 | 64 | 1018.6 |
| 20260831025526 | 68 | 223 | 0.0 | 0.0 | 0.00 | 0.02 | 0.02 | 63 | 1018.5 |
| 20260831025019 | 68 | 223 | 0.0 | 0.0 | 0.00 | 0.02 | 0.02 | 63 | 1018.3 |
| 20260831024513 | 69 | 223 | 0.0 | 0.0 | 0.00 | 0.02 | 0.02 | 63 | 1018.5 |
| 20260831024006 | 69 | 223 | 0.0 | 0.0 | 0.00 | 0.02 | 0.02 | 63 | 1018.5 |
| 20260831023500 | 69 | 223 | 0.0 | 0.0 | 0.00 | 0.02 | 0.02 | 62 | 1018.1 |
| 20260831021942 | 69 | 223 | 0.0 | 0.0 | 0.00 | 0.02 | 0.02 | 62 | 1017.9 |
| 20260831021437 | 70 | 223 | 0.0 | 0.0 | 0.00 | 0.02 | 0.02 | 62 | 1018.0 |
| 20260831020931 | 70 | 223 | 0.0 | 0.0 | 0.00 | 0.02 | 0.02 | 62 | 1017.9 |
| 20260831020425 | 70 | 223 | 0.0 | 0.0 | 0.00 | 0.02 | 0.02 | 61 | 1017.9 |
| 20260831015920 | 70 | 223 | 0.0 | 0.0 | 0.00 | 0.02 | 0.02 | 61 | 1017.9 |
| 20260831015412 | 71 | 223 | 0.0 | 0.0 | 0.00 | 0.02 | 0.02 | 61 | 1017.9 |
| 20260831014401 | 71 | 223 | 0.0 | 0.0 | 0.00 | 0.02 | 0.02 | 60 | 1017.8 |
| 20260831013350 | 72 | 223 | 0.0 | 0.0 | 0.00 | 0.02 | 0.02 | 59 | 1017.8 |
| 20260831012842 | 72 | 223 | 0.0 | 0.0 | 0.00 | 0.02 | 0.02 | 59 | 1017.9 |
| 20260831012337 | 73 | 223 | 0.0 | 0.0 | 0.00 | 0.02 | 0.02 | 58 | 1017.8 |
| 20260831011831 | 73 | 223 | 0.0 | 0.0 | 0.00 | 0.02 | 0.02 | 58 | 1017.6 |
| 20260831011325 | 73 | 223 | 0.0 | 0.0 | 0.00 | 0.02 | 0.02 | 57 | 1017.8 |
| 20260831005807 | 75 | 222 | 0.0 | 0.0 | 0.00 | 0.02 | 0.02 | 56 | 1017.6 |
| 20260831004250 | 75 | 222 | 0.0 | 0.0 | 0.00 | 0.02 | 0.02 | 56 | 1017.8 |
| 20260831003239 | 75 | 222 | 0.0 | 0.0 | 0.00 | 0.02 | 0.02 | 56 | 1017.8 |
| 20260831002733 | 75 | 222 | 0.0 | 1.7 | 0.00 | 0.02 | 0.02 | 56 | 1017.8 |
| 20260831002225 | 75 | 222 | 0.0 | 1.7 | 0.00 | 0.02 | 0.02 | 57 | 1018.0 |
| 20260831001718 | 74 | 222 | 0.0 | 1.7 | 0.00 | 0.02 | 0.02 | 59 | 1017.9 |
| 20260831001213 | 74 | 223 | 0.0 | 0.0 | 0.00 | 0.02 | 0.02 | 59 | 1017.9 |
| 20260831000201 | 73 | 225 | 0.0 | 0.0 | 0.00 | 0.02 | 0.02 | 62 | 1017.9 |
| 20260830235655 | 73 | 225 | 0.0 | 0.0 | 0.00 | 0.02 | 0.02 | 63 | 1017.9 |
| 20260830234139 | 71 | 226 | 0.0 | 0.0 | 0.00 | 0.02 | 0.02 | 64 | 1017.8 |
| 20260830233631 | 71 | 226 | 0.0 | 0.0 | 0.00 | 0.02 | 0.02 | 65 | 1017.8 |
| 20260830233125 | 71 | 226 | 0.0 | 0.0 | 0.00 | 0.02 | 0.02 | 66 | 1017.9 |
| 20260830232618 | 71 | 226 | 0.0 | 0.0 | 0.01 | 0.02 | 0.02 | 66 | 1017.8 |
| 20260830232113 | 71 | 226 | 0.0 | 0.0 | 0.01 | 0.02 | 0.02 | 65 | 1017.8 |
| 20260830231608 | 71 | 226 | 0.0 | 0.0 | 0.01 | 0.02 | 0.02 | 65 | 1017.8 |